User: anonymous   Login
Location: Astronight Observatory
(42.6003°N, 71.2981°W)
Time: 20:12:54
(UTC-05:00)
Language:

DELTA 2 R/B (1) - Orbit

View from above orbital plane
View from above orbital plane
View from above satellite
View from above satellite

Ground track
Ground track

The orbit data is extracted from the following two-line orbital elements,

1 27665U 03005C   17022.78453990 +.00000016 +00000-0 +40024-4 0  9992
2 27665 039.5757 130.6198 0008511 035.9325 101.2468 14.28432266730048
Epoch (UTC): 22 January 2017 18:49:44
Eccentricity: 0.0008511
inclination: 39.5757°
perigee height: 791 km
apogee height: 803 km
right ascension of ascending node: 130.6198°
argument of perigee: 35.9325°
revolutions per day: 14.28432266
mean anomaly at epoch: 101.2468°
orbit number at epoch: 73004

The dashed part of the orbit path shows where the satellite is in the earth's shadow,  

DLR